Overview Statistics Trail Chart Weather Telemetry Raw packets
 

This is the latest recevied weather packets stored in our database for station/object OE2WAO-15. If no packets are shown the sender has not sent any weather packets the latest 10 day(s).

<< 2 3 4 5 6 7 8 >>
Time Temp. Humidity Pressure Rain* Wind** Luminosity Snow
1788451157 25° C 90% 1021.2 hPa - - - -
1788449941 25.56° C 83% 1021.3 hPa - - - -
1788449334 26.11° C 85% 1021.3 hPa - - - -
1788448726 26.11° C 88% 1021.4 hPa - - - -
1788448118 26.11° C 92% 1021.5 hPa - - - -
1788447510 26.11° C 89% 1021.5 hPa - - - -
1788446903 26.67° C 81% 1021.5 hPa - - - -
1788446295 26.67° C 77% 1021.4 hPa - - - -
1788445687 26.67° C 78% 1021.5 hPa - - - -
1788445080 26.67° C 82% 1021.5 hPa - - - -
1788444472 26.11° C 76% 1021.7 hPa - - - -
1788443865 26.67° C 73% 1021.7 hPa - - - -
1788443257 27.22° C 80% 1021.7 hPa - - - -
1788442650 27.22° C 73% 1021.6 hPa - - - -
1788442042 26.67° C 74% 1021.7 hPa - - - -
1788441435 26.67° C 75% 1021.7 hPa - - - -
1788440827 26.11° C 75% 1021.9 hPa - - - -
1788440220 26.67° C 78% 1022 hPa - - - -
1788439612 26.67° C 90% 1022.1 hPa - - - -
1788439005 26.67° C 88% 1022 hPa - - - -
1788438397 26.11° C 94% 1022.1 hPa - - - -
1788437790 26.11° C 98% 1022.3 hPa - - - -
1788437182 26.67° C 94% 1022.3 hPa - - - -
1788436575 26.67° C 97% 1022.3 hPa - - - -
1788435967 26.11° C 99% 1022.3 hPa - - - -

* Rain since midnight (hover to see other rain measurements)
** Current wind speed in m/s (hover to see current wind gust speed)